KC5TIL-3 Weather Reports


Display with metric or nautical units.
time (UTC)temp
F
wind
direction
speed
MPH
gust
MPH
rain 1hr
in
rain 24hr
in
rain mn
in
humidity
%
barometer
mb
20210916165350 82 244 4.0 13.0 0.00 0.00 0.00 50 1012.8
20210916164955 81 156 7.0 11.0 0.00 0.00 0.00 50 1012.8
20210916164843 81 156 7.0 11.0 0.00 0.00 0.00 50 1012.8
20210916164340 81 149 7.0 11.0 0.00 0.00 0.00 48 1012.8
20210916164002 82 131 5.0 10.0 0.00 0.00 0.00 48 1012.8
20210916163843 82 131 5.0 10.0 0.00 0.00 0.00 48 1012.8
20210916163434 81 55 5.0 11.0 0.00 0.00 0.00 50 1012.8
20210916163338 81 55 5.0 11.0 0.00 0.00 0.00 50 1012.8
20210916162926 80 115 9.0 10.0 0.00 0.00 0.00 51 1012.8
20210916162837 80 115 9.0 10.0 0.00 0.00 0.00 51 1012.8
20210916162419 82 129 4.0 12.0 0.00 0.00 0.00 48 1012.8
20210916162334 82 129 4.0 12.0 0.00 0.00 0.00 48 1012.8
20210916161909 82 139 6.0 10.0 0.00 0.00 0.00 48 1012.8
20210916161822 82 139 6.0 10.0 0.00 0.00 0.00 48 1012.8
20210916161324 81 117 8.0 11.0 0.00 0.00 0.00 50 1012.8
20210916160821 82 139 7.0 9.0 0.00 0.00 0.00 49 1012.8
20210916160316 81 7 0.0 9.0 0.00 0.00 0.00 51 1012.8
20210916155818 81 132 7.0 9.0 0.00 0.00 0.00 50 1012.8
20210916155321 81 165 5.0 7.0 0.00 0.00 0.00 50 1012.8
20210916154816 82 186 4.0 9.0 0.00 0.00 0.00 50 1012.8
20210916154316 80 110 7.0 8.0 0.00 0.00 0.00 51 1012.8
20210916153817 82 112 5.0 7.0 0.00 0.00 0.00 50 1012.8
20210916153400 81 243 4.0 7.0 0.00 0.00 0.00 52 1012.8
20210916153308 81 243 4.0 7.0 0.00 0.00 0.00 52 1012.8
20210916152311 81 152 4.0 6.0 0.00 0.00 0.00 55 1012.8
20210916151916 80 20 4.0 10.0 0.00 0.00 0.00 57 1012.8
20210916151807 80 20 4.0 10.0 0.00 0.00 0.00 57 1012.8
20210916151349 79 117 6.0 9.0 0.00 0.00 0.00 59 1012.8
20210916151309 79 117 6.0 9.0 0.00 0.00 0.00 59 1012.8
20210916150915 79 140 4.0 10.0 0.00 0.00 0.00 58 1012.8
20210916150811 79 140 4.0 10.0 0.00 0.00 0.00 58 1012.8
20210916150308 78 125 9.0 9.0 0.00 0.00 0.00 61 1012.8
20210916145811 78 145 6.0 10.0 0.00 0.00 0.00 60 1012.8
20210916145358 78 129 9.0 9.0 0.00 0.00 0.00 59 1012.8
20210916145312 78 129 9.0 9.0 0.00 0.00 0.00 59 1012.8
20210916144904 78 119 4.0 7.0 0.00 0.00 0.00 59 1012.8
20210916144808 78 119 4.0 7.0 0.00 0.00 0.00 59 1012.8
20210916144305 78 138 5.0 9.0 0.00 0.00 0.00 61 1012.8
20210916143920 77 101 8.0 9.0 0.00 0.00 0.00 61 1012.8
20210916143807 77 101 8.0 9.0 0.00 0.00 0.00 61 1012.8
20210916143300 78 118 4.0 4.0 0.00 0.00 0.00 61 1012.8
20210916142337 78 115 4.0 7.0 0.00 0.00 0.00 62 1012.8
20210916142305 78 115 4.0 7.0 0.00 0.00 0.00 62 1012.8
20210916141908 77 72 0.0 8.0 0.00 0.00 0.00 64 1012.8
20210916141800 77 72 0.0 8.0 0.00 0.00 0.00 64 1012.8
20210916141301 76 158 6.0 8.0 0.00 0.00 0.00 64 1012.8
20210916140947 76 138 7.0 7.0 0.00 0.00 0.00 64 1012.8
20210916140803 76 138 7.0 7.0 0.00 0.00 0.00 64 1012.8
20210916140357 77 122 4.0 7.0 0.00 0.00 0.00 65 1012.8
20210916140301 77 122 4.0 7.0 0.00 0.00 0.00 65 1012.8
20210916135907 77 119 0.0 7.0 0.00 0.00 0.00 66 1011.8
20210916135803 77 119 0.0 7.0 0.00 0.00 0.00 66 1011.8
20210916135355 76 117 4.0 6.0 0.00 0.00 0.00 67 1011.8
20210916135306 76 117 4.0 6.0 0.00 0.00 0.00 67 1011.8
20210916134338 75 138 3.0 4.0 0.00 0.00 0.00 68 1011.8
20210916134304 75 138 3.0 4.0 0.00 0.00 0.00 68 1011.8
20210916133806 75 159 3.0 4.0 0.00 0.00 0.00 70 1011.8
20210916133440 75 221 0.0 4.0 0.00 0.00 0.00 70 1011.8
20210916133305 75 221 0.0 4.0 0.00 0.00 0.00 70 1011.8
20210916132806 74 221 3.0 4.0 0.00 0.00 0.00 72 1011.8
20210916132308 74 227 0.0 3.0 0.00 0.00 0.00 74 1011.8
20210916131920 74 128 0.0 0.0 0.00 0.00 0.00 74 1011.8
20210916131805 74 128 0.0 0.0 0.00 0.00 0.00 74 1011.8
20210916130904 74 128 0.0 0.0 0.00 0.00 0.00 74 1011.8
20210916130808 74 128 0.0 0.0 0.00 0.00 0.00 74 1011.8
20210916130303 73 128 0.0 0.0 0.00 0.00 0.00 75 1011.8
20210916125805 73 128 0.0 4.0 0.00 0.00 0.00 75 1011.8
20210916124804 73 121 0.0 4.0 0.00 0.00 0.00 77 1011.8
20210916124305 72 206 0.0 3.0 0.00 0.00 0.00 78 1011.8
20210916123806 72 232 0.0 0.0 0.00 0.00 0.00 80 1011.8
20210916123304 72 232 0.0 0.0 0.00 0.00 0.00 80 1011.8
20210916122806 72 232 0.0 0.0 0.00 0.00 0.00 81 1010.8
20210916122308 71 232 0.0 0.0 0.00 0.00 0.00 82 1010.8
20210916121803 71 232 0.0 0.0 0.00 0.00 0.00 82 1010.8
20210916121305 71 232 0.0 0.0 0.00 0.00 0.00 82 1010.8
20210916120806 71 232 0.0 0.0 0.00 0.00 0.00 83 1010.8
20210916115807 71 232 0.0 0.0 0.00 0.00 0.00 85 1010.8
20210916114806 71 233 0.0 0.0 0.00 0.00 0.00 85 1010.8
20210916114308 71 233 0.0 0.0 0.00 0.00 0.00 84 1010.8
20210916113941 71 233 0.0 0.0 0.00 0.00 0.00 84 1010.8
20210916113810 71 233 0.0 0.0 0.00 0.00 0.00 84 1010.8
20210916113306 71 233 0.0 0.0 0.00 0.00 0.00 84 1010.8
20210916112808 71 233 0.0 0.0 0.00 0.00 0.00 83 1010.8
20210916112309 71 232 0.0 0.0 0.00 0.00 0.00 82 1010.8
20210916111807 71 233 0.0 0.0 0.00 0.00 0.00 82 1010.8
20210916111309 71 233 0.0 0.0 0.00 0.00 0.00 82 1010.8
20210916110811 71 233 0.0 0.0 0.00 0.00 0.00 82 1010.8
20210916110349 71 232 0.0 0.0 0.00 0.00 0.00 82 1010.8
20210916110307 71 232 0.0 0.0 0.00 0.00 0.00 82 1010.8
20210916105906 71 232 0.0 0.0 0.00 0.00 0.00 82 1010.8
20210916105808 71 232 0.0 0.0 0.00 0.00 0.00 82 1010.8
20210916105403 71 233 0.0 0.0 0.00 0.00 0.00 82 1010.8
20210916105310 71 233 0.0 0.0 0.00 0.00 0.00 82 1010.8
20210916104857 71 232 0.0 0.0 0.00 0.00 0.00 82 1010.8
20210916104806 71 232 0.0 0.0 0.00 0.00 0.00 82 1010.8
20210916104340 71 233 0.0 0.0 0.00 0.00 0.00 82 1010.8
20210916104308 71 233 0.0 0.0 0.00 0.00 0.00 82 1010.8
20210916103810 71 232 0.0 0.0 0.00 0.00 0.00 80 1010.8
20210916103308 71 233 0.0 0.0 0.00 0.00 0.00 79 1010.8
20210916102809 71 232 0.0 0.0 0.00 0.00 0.00 78 1010.8
20210916102353 72 233 0.0 0.0 0.00 0.00 0.00 77 1010.8
20210916102311 72 233 0.0 0.0 0.00 0.00 0.00 77 1010.8
20210916101808 72 233 0.0 0.0 0.00 0.00 0.00 76 1010.8
20210916101310 72 233 0.0 0.0 0.00 0.00 0.00 75 1010.8
20210916100916 72 232 0.0 3.0 0.00 0.00 0.00 73 1010.8
20210916100812 72 232 0.0 3.0 0.00 0.00 0.00 73 1010.8
20210916100340 72 232 0.0 0.0 0.00 0.00 0.00 73 1010.8
20210916100307 72 232 0.0 0.0 0.00 0.00 0.00 73 1010.8
20210916095809 72 215 0.0 0.0 0.00 0.00 0.00 73 1010.8
20210916095311 72 215 0.0 0.0 0.00 0.00 0.00 73 1010.8
20210916094809 72 145 0.0 0.0 0.00 0.00 0.00 72 1010.8
20210916094311 72 145 0.0 0.0 0.00 0.00 0.00 72 1010.8
20210916093906 72 145 0.0 0.0 0.00 0.00 0.00 72 1010.8
20210916093812 72 145 0.0 0.0 0.00 0.00 0.00 72 1010.8
20210916093345 72 145 0.0 0.0 0.00 0.00 0.00 72 1010.8
20210916093307 72 145 0.0 0.0 0.00 0.00 0.00 72 1010.8
20210916092809 72 144 0.0 0.0 0.00 0.00 0.00 72 1010.8
20210916092346 73 145 0.0 0.0 0.00 0.00 0.00 72 1010.8
20210916092311 73 145 0.0 0.0 0.00 0.00 0.00 72 1010.8
20210916091919 73 144 0.0 0.0 0.00 0.00 0.00 71 1010.8
20210916091807 73 144 0.0 0.0 0.00 0.00 0.00 71 1010.8
20210916091309 73 144 0.0 0.0 0.00 0.00 0.00 70 1010.8
20210916090810 73 144 0.0 0.0 0.00 0.00 0.00 72 1010.8
20210916085848 73 144 0.0 0.0 0.00 0.00 0.00 72 1010.8
20210916085811 73 144 0.0 0.0 0.00 0.00 0.00 72 1010.8
20210916085314 73 144 0.0 0.0 0.00 0.00 0.00 72 1010.8
20210916084809 73 144 0.0 0.0 0.00 0.00 0.00 72 1010.8
20210916083813 73 145 0.0 0.0 0.00 0.00 0.00 74 1010.8
20210916083309 73 145 0.0 0.0 0.00 0.00 0.00 75 1010.8
20210916082912 73 145 0.0 0.0 0.00 0.00 0.00 74 1010.8
20210916082811 73 145 0.0 0.0 0.00 0.00 0.00 74 1010.8
20210916082313 73 145 0.0 0.0 0.00 0.00 0.00 75 1010.8
20210916081810 73 145 0.0 0.0 0.00 0.00 0.00 77 1010.8
20210916081312 73 145 0.0 0.0 0.00 0.00 0.00 78 1010.8
20210916080902 73 145 0.0 0.0 0.00 0.00 0.00 77 1010.8
20210916080814 73 145 0.0 0.0 0.00 0.00 0.00 77 1010.8
20210916080312 73 145 0.0 0.0 0.00 0.00 0.00 78 1010.8
20210916075813 73 145 0.0 0.0 0.00 0.00 0.00 78 1010.8
20210916075316 73 145 0.0 0.0 0.00 0.00 0.00 78 1010.8
20210916074904 73 145 0.0 0.0 0.00 0.00 0.00 77 1010.8
20210916074812 73 145 0.0 0.0 0.00 0.00 0.00 77 1010.8
20210916074315 73 145 0.0 0.0 0.00 0.00 0.00 76 1010.8
20210916073312 74 145 0.0 0.0 0.00 0.00 0.00 74 1010.8
20210916072813 74 145 0.0 0.0 0.00 0.00 0.00 75 1010.8
20210916071811 74 145 0.0 0.0 0.00 0.00 0.00 74 1010.8
20210916071313 74 145 0.0 0.0 0.00 0.00 0.00 73 1010.8
20210916070815 75 145 0.0 0.0 0.00 0.00 0.00 73 1010.8
20210916070308 75 145 0.0 0.0 0.00 0.00 0.00 72 1010.8
20210916065810 75 145 0.0 0.0 0.00 0.00 0.00 71 1010.8
20210916065312 75 145 0.0 0.0 0.00 0.00 0.00 69 1010.8
20210916064903 76 145 0.0 0.0 0.00 0.00 0.00 69 1010.8
20210916064808 76 145 0.0 0.0 0.00 0.00 0.00 69 1010.8
20210916064310 76 145 0.0 0.0 0.00 0.00 0.00 67 1010.8
20210916063812 76 145 0.0 0.0 0.00 0.00 0.00 65 1010.8
20210916063307 77 145 0.0 0.0 0.00 0.00 0.00 63 1010.8
20210916062809 77 145 0.0 0.0 0.00 0.00 0.00 61 1010.8
20210916062311 77 145 0.0 0.0 0.00 0.00 0.00 61 1010.8
20210916061809 77 145 0.0 0.0 0.00 0.00 0.00 60 1010.8
20210916061311 77 145 0.0 0.0 0.00 0.00 0.00 59 1010.8
20210916060812 77 145 0.0 0.0 0.00 0.00 0.00 59 1010.8
20210916060353 77 144 0.0 0.0 0.00 0.00 0.00 59 1010.8
20210916060308 77 144 0.0 0.0 0.00 0.00 0.00 59 1010.8
20210916055810 77 144 0.0 0.0 0.00 0.00 0.00 58 1010.8
20210916055402 78 144 0.0 0.0 0.00 0.00 0.00 58 1010.8
20210916055312 78 144 0.0 0.0 0.00 0.00 0.00 58 1010.8
20210916054906 78 144 0.0 3.0 0.00 0.00 0.00 57 1010.8
20210916054808 78 144 0.0 3.0 0.00 0.00 0.00 57 1010.8
20210916054357 78 144 0.0 3.0 0.00 0.00 0.00 58 1010.8
20210916054311 78 144 0.0 3.0 0.00 0.00 0.00 58 1010.8
20210916053928 78 144 0.0 0.0 0.00 0.00 0.00 57 1010.8
20210916053812 78 144 0.0 0.0 0.00 0.00 0.00 57 1010.8
20210916052909 78 144 0.0 0.0 0.00 0.00 0.00 57 1010.8
20210916052812 78 144 0.0 0.0 0.00 0.00 0.00 57 1010.8
20210916051811 78 144 0.0 4.0 0.00 0.00 0.00 56 1010.8
20210916045316 79 147 4.0 6.0 0.00 0.00 0.00 53 1010.8
20210916044814 79 147 4.0 5.0 0.00 0.00 0.00 53 1010.8
20210916044316 79 146 4.0 5.0 0.00 0.00 0.00 53 1010.8
20210916043358 79 152 3.0 5.0 0.00 0.00 0.00 52 1010.8
20210916043315 79 152 3.0 5.0 0.00 0.00 0.00 52 1010.8
20210916042816 80 148 3.0 7.0 0.00 0.00 0.00 51 1010.8
20210916042404 80 147 4.0 8.0 0.00 0.00 0.00 51 1010.8
20210916042318 80 147 4.0 8.0 0.00 0.00 0.00 51 1010.8
20210916041904 80 130 7.0 7.0 0.00 0.00 0.00 49 1010.8
20210916041814 80 130 7.0 7.0 0.00 0.00 0.00 49 1010.8
20210916041316 81 112 7.0 6.0 0.00 0.00 0.00 49 1010.8
20210916040403 80 116 4.0 6.0 0.00 0.00 0.00 50 1010.8
20210916040315 80 116 4.0 6.0 0.00 0.00 0.00 50 1010.8
20210916035909 80 128 4.0 6.0 0.00 0.00 0.00 49 1010.8
20210916035817 80 128 4.0 6.0 0.00 0.00 0.00 49 1010.8
20210916035319 80 135 4.0 5.0 0.00 0.00 0.00 49 1010.8
20210916034846 81 137 4.0 5.0 0.00 0.00 0.00 48 1010.8
20210916034815 81 137 4.0 5.0 0.00 0.00 0.00 48 1010.8
20210916033907 81 142 4.0 7.0 0.00 0.00 0.00 48 1010.8
20210916033818 81 142 4.0 7.0 0.00 0.00 0.00 48 1010.8
20210916033316 81 121 5.0 5.0 0.00 0.00 0.00 47 1010.8
20210916032818 82 137 4.0 5.0 0.00 0.00 0.00 45 1010.8
20210916032320 82 128 4.0 6.0 0.00 0.00 0.00 44 1010.8
20210916031904 82 123 5.0 6.0 0.00 0.00 0.00 44 1010.8
20210916031814 82 123 5.0 6.0 0.00 0.00 0.00 44 1010.8
20210916031359 82 123 4.0 5.0 0.00 0.00 0.00 45 1010.8
20210916031314 82 123 4.0 5.0 0.00 0.00 0.00 45 1010.8
20210916030359 81 118 4.0 4.0 0.00 0.00 0.00 45 1010.8
20210916030310 81 118 4.0 4.0 0.00 0.00 0.00 45 1010.8
20210916025308 81 121 3.0 5.0 0.00 0.00 0.00 45 1010.8
20210916024904 82 95 3.0 6.0 0.00 0.00 0.00 45 1010.8
20210916024801 82 95 3.0 6.0 0.00 0.00 0.00 45 1010.8
20210916024258 81 132 4.0 5.0 0.00 0.00 0.00 45 1010.8
20210916023916 81 136 4.0 4.0 0.00 0.00 0.00 46 1010.8
20210916023754 81 136 4.0 4.0 0.00 0.00 0.00 46 1010.8
20210916022749 82 92 3.0 5.0 0.00 0.00 0.00 45 1010.8
20210916022251 82 74 3.0 4.0 0.00 0.00 0.00 45 1010.8
20210916021758 82 73 0.0 5.0 0.00 0.00 0.00 44 1010.8
20210916021725 82 73 0.0 5.0 0.00 0.00 0.00 44 1010.8
20210916021212 82 78 3.0 4.0 0.00 0.00 0.00 44 1009.8
20210916020714 82 81 0.0 3.0 0.00 0.00 0.00 43 1009.8
20210916020302 83 101 0.0 3.0 0.00 0.00 0.00 43 1009.8
20210916020211 83 101 0.0 3.0 0.00 0.00 0.00 43 1009.8
20210916015915 83 101 0.0 4.0 0.00 0.00 0.00 43 1009.8
20210916015712 83 101 0.0 4.0 0.00 0.00 0.00 43 1009.8
20210916015252 83 101 0.0 3.0 0.00 0.00 0.00 43 1009.8
20210916015214 83 101 0.0 3.0 0.00 0.00 0.00 43 1009.8
20210916014828 83 101 0.0 0.0 0.00 0.00 0.00 43 1009.8
20210916014710 83 101 0.0 0.0 0.00 0.00 0.00 43 1009.8
20210916013800 83 101 0.0 4.0 0.00 0.00 0.00 43 1009.8
20210916013713 83 101 0.0 4.0 0.00 0.00 0.00 43 1009.8
20210916013342 83 102 0.0 4.0 0.00 0.00 0.00 42 1009.8
20210916013207 83 102 0.0 4.0 0.00 0.00 0.00 42 1009.8
20210916012709 83 105 0.0 3.0 0.00 0.00 0.00 42 1009.8
20210916012211 83 106 0.0 0.0 0.00 0.00 0.00 42 1009.8
20210916011706 83 106 0.0 0.0 0.00 0.00 0.00 42 1009.8
20210916011207 83 106 0.0 0.0 0.00 0.00 0.00 41 1009.8
20210916010710 83 106 0.0 0.0 0.00 0.00 0.00 41 1009.8
20210916005803 84 106 0.0 0.0 0.00 0.00 0.00 40 1009.8
20210916005707 84 106 0.0 0.0 0.00 0.00 0.00 40 1009.8
20210916004208 85 106 3.0 6.0 0.00 0.00 0.00 39 1009.8
20210916003754 85 93 3.0 6.0 0.00 0.00 0.00 38 1009.8
20210916003711 85 93 3.0 6.0 0.00 0.00 0.00 38 1009.8
20210916003250 85 131 4.0 6.0 0.00 0.00 0.00 38 1009.8
20210916003208 85 131 4.0 6.0 0.00 0.00 0.00 38 1009.8
20210916002828 85 117 5.0 7.0 0.00 0.00 0.00 37 1008.8
20210916002707 85 117 5.0 7.0 0.00 0.00 0.00 37 1008.8
20210916002209 85 156 4.0 6.0 0.00 0.00 0.00 36 1008.8
20210916001705 86 92 0.0 6.0 0.00 0.00 0.00 35 1008.8
20210916001208 86 93 3.0 7.0 0.00 0.00 0.00 35 1008.8
20210916000709 86 60 4.0 5.0 0.00 0.00 0.00 35 1008.8
20210916000206 86 31 4.0 8.0 0.00 0.00 0.00 35 1008.8
20210915235708 86 293 5.0 10.0 0.00 0.00 0.00 35 1008.8
20210915234702 86 6 4.0 9.0 0.00 0.00 0.00 35 1008.8
20210915234203 87 129 5.0 11.0 0.00 0.00 0.00 35 1008.8
20210915232739 87 53 5.0 10.0 0.00 0.00 0.00 35 1008.8
20210915232652 87 53 5.0 10.0 0.00 0.00 0.00 35 1008.8
20210915231650 87 35 5.0 7.0 0.00 0.00 0.00 35 1008.8
20210915231242 87 291 3.0 8.0 0.00 0.00 0.00 34 1008.8
20210915231151 87 291 3.0 8.0 0.00 0.00 0.00 34 1008.8
20210915230813 87 341 6.0 10.0 0.00 0.00 0.00 34 1008.8
20210915230651 87 341 6.0 10.0 0.00 0.00 0.00 34 1008.8
20210915230149 86 142 4.0 11.0 0.00 0.00 0.00 34 1008.8
20210915225152 87 32 6.0 8.0 0.00 0.00 0.00 34 1008.8
20210915224649 86 116 0.0 7.0 0.00 0.00 0.00 35 1008.8
20210915224150 86 94 5.0 7.0 0.00 0.00 0.00 35 1008.8
20210915223728 86 89 4.0 7.0 0.00 0.00 0.00 35 1008.8
20210915223652 86 89 4.0 7.0 0.00 0.00 0.00 35 1008.8
20210915223147 86 115 4.0 8.0 0.00 0.00 0.00 34 1008.8
20210915222648 86 68 5.0 8.0 0.00 0.00 0.00 35 1008.8
20210915222235 86 3 5.0 10.0 0.00 0.00 0.00 35 1008.8
20210915222150 86 3 5.0 10.0 0.00 0.00 0.00 35 1008.8
20210915221644 86 44 6.0 9.0 0.00 0.00 0.00 35 1008.8
20210915221145 87 334 4.0 7.0 0.00 0.00 0.00 35 1008.8
20210915220647 87 59 5.0 9.0 0.00 0.00 0.00 34 1008.8
20210915220144 87 144 6.0 9.0 0.00 0.00 0.00 33 1008.8
20210915215640 87 351 5.0 10.0 0.00 0.00 0.00 34 1008.8
20210915215143 87 36 7.0 10.0 0.00 0.00 0.00 34 1008.8
20210915214638 87 16 7.0 8.0 0.00 0.00 0.00 34 1008.8
20210915212142 87 26 4.0 10.0 0.00 0.00 0.00 34 1008.8
20210915211636 87 23 8.0 9.0 0.00 0.00 0.00 33 1008.8
20210915211138 88 174 5.0 11.0 0.00 0.00 0.00 32 1008.8
20210915210641 87 45 7.0 9.0 0.00 0.00 0.00 33 1008.8
20210915210130 86 37 6.0 10.0 0.00 0.00 0.00 35 1008.8
20210915205632 86 62 6.0 10.0 0.00 0.00 0.00 34 1009.8
20210915205133 87 19 5.0 9.0 0.00 0.00 0.00 34 1009.8
20210915204626 87 107 4.0 11.0 0.00 0.00 0.00 35 1009.8
20210915204128 87 54 7.0 12.0 0.00 0.00 0.00 34 1009.8
20210915203621 88 212 4.0 17.0 0.00 0.00 0.00 34 1009.8
20210915203110 87 85 7.0 10.0 0.00 0.00 0.00 34 1009.8
20210915202612 87 157 5.0 11.0 0.00 0.00 0.00 34 1009.8
20210915202114 86 33 7.0 12.0 0.00 0.00 0.00 35 1009.8
20210915201610 87 238 5.0 8.0 0.00 0.00 0.00 35 1009.8
20210915200614 86 36 7.0 10.0 0.00 0.00 0.00 35 1009.8
20210915200112 88 94 4.0 9.0 0.00 0.00 0.00 35 1009.8
20210915195608 87 255 4.0 12.0 0.00 0.00 0.00 37 1009.8
20210915194601 87 329 5.0 13.0 0.00 0.00 0.00 37 1009.8
20210915194102 86 78 4.0 9.0 0.00 0.00 0.00 36 1010.8
20210915193604 86 112 6.0 11.0 0.00 0.00 0.00 37 1010.8
20210915193228 86 115 5.0 10.0 0.00 0.00 0.00 37 1010.8
20210915193058 86 115 5.0 10.0 0.00 0.00 0.00 37 1010.8
20210915192600 87 34 5.0 9.0 0.00 0.00 0.00 37 1010.8
20210915190054 85 223 4.0 9.0 0.00 0.00 0.00 38 1010.8
20210915185549 85 200 5.0 11.0 0.00 0.00 0.00 38 1010.8
20210915185051 85 79 8.0 12.0 0.00 0.00 0.00 39 1010.8
20210915184549 85 91 5.0 8.0 0.00 0.00 0.00 39 1010.8
20210915184131 84 110 4.0 11.0 0.00 0.00 0.00 40 1010.8
20210915184050 84 110 4.0 11.0 0.00 0.00 0.00 40 1010.8
20210915183622 85 159 7.0 12.0 0.00 0.00 0.00 40 1010.8
20210915183551 85 159 7.0 12.0 0.00 0.00 0.00 40 1010.8
20210915183050 83 194 9.0 12.0 0.00 0.00 0.00 40 1010.8
20210915182552 85 85 6.0 10.0 0.00 0.00 0.00 38 1010.8
20210915182049 84 5 7.0 12.0 0.00 0.00 0.00 40 1010.8
20210915181544 85 25 8.0 14.0 0.00 0.00 0.00 39 1010.8
20210915181046 85 265 6.0 12.0 0.00 0.00 0.00 40 1011.8
20210915180543 85 320 6.0 13.0 0.00 0.00 0.00 40 1011.8
20210915175612 83 108 6.0 11.0 0.00 0.00 0.00 42 1011.8
20210915175539 83 108 6.0 11.0 0.00 0.00 0.00 42 1011.8
20210915175041 83 183 7.0 12.0 0.00 0.00 0.00 43 1011.8
20210915174535 82 1 5.0 12.0 0.00 0.00 0.00 44 1011.8
20210915174037 82 174 7.0 10.0 0.00 0.00 0.00 43 1011.8
20210915173539 83 51 6.0 8.0 0.00 0.00 0.00 43 1011.8
20210915173035 83 89 6.0 12.0 0.00 0.00 0.00 43 1011.8
20210915172537 83 254 4.0 12.0 0.00 0.00 0.00 43 1011.8
20210915172040 82 316 9.0 12.0 0.00 0.00 0.00 44 1011.8
20210915171537 82 97 6.0 10.0 0.00 0.00 0.00 45 1011.8
20210915171127 82 73 7.0 10.0 0.00 0.00 0.00 45 1011.8
20210915171039 82 73 7.0 10.0 0.00 0.00 0.00 45 1011.8
20210915165536 81 171 5.0 10.0 0.00 0.00 0.00 49 1011.8